New Bern, NC

3:27 AM EDT on July 26, 2017 (GMT -0400)
Craven County Regional

Weather History for KEWN - October, 2013

Change the Weather History Date:

Tuesday, October 15, 2013

  Actual Average Record
Temperature  
Mean Temperature 67 °F 64 °F  
Max Temperature 71 °F 75 °F 88 °F (1985)
Min Temperature 62 °F 54 °F 36 °F (2006)
Degree Days  
Heating Degree Days 0 3  
Month to date heating degree days 2 30  
Since 1 July heating degree days 4 37  
Cooling Degree Days 2 2  
Month to date cooling degree days 82 56  
Year to date cooling degree days 1967 1859  
Growing Degree Days 16 (Base 50)    
Moisture  
Dew Point 63 °F    
Average Humidity 86    
Maximum Humidity 93    
Minimum Humidity 78    
Precipitation  
Precipitation T in 0.09 in 1.91 in (1959)
Month to date precipitation 2.92 1.76  
Year to date precipitation 35.54 44.45  
Snow  
Snow 0.00 in - - ()
Month to date snowfall 0.0  
Since 1 July snowfall 0.0  
Snow Depth 0.00 in    
Sea Level Pressure  
Sea Level Pressure 30.07 in    
Wind  
Wind Speed 9 mph (North)    
Max Wind Speed 14 mph    
Max Gust Speed 17 mph    
Visibility 8 miles    
Events Rain    
T = Trace of Precipitation, MM = Missing Value Source: NWS Daily Summary

Daily Weather History Graph

Daily Weather History Graph

Search for Another Location

Airport or City:

Trip Planner

Search our weather history database for the weather conditions in past years. The results will help you decide how hot, cold, wet, or windy it might be!

Date:

Astronomy

Oct. 15, 2013 Rise Set
Actual Time 7:14 AM EDT 6:32 PM EDT
Civil Twilight 6:48 AM EDT 6:58 PM EDT
Nautical Twilight 6:19 AM EDT 7:27 PM EDT
Astronomical Twilight 5:50 AM EDT 7:57 PM EDT
Moon 4:30 PM EDT (10/15) 3:42 AM EDT (10/15)
Length of Visible Light 12h 09m
Length of Day
11h 18m
Waxing Gibbous, 87% of the Moon is Illuminated
Oct 15
Waxing Gibbous
Oct 18
Full
Oct 26
Last Quarter
Nov 3
New
Nov 10
First Quarter

Hourly Weather History & Observations

Time (EDT) Temp. Dew Point Humidity Pressure Visibility Wind Dir Wind Speed Gust Speed Precip Events Conditions
12:43 AM 64.4 °F 60.8 °F 88% 30.13 in 10.0 mi North 6.9 mph - N/A   Overcast
12:54 AM 64.0 °F 61.0 °F 90% 30.13 in 10.0 mi North 8.1 mph - N/A   Overcast
1:54 AM 64.0 °F 60.1 °F 87% 30.12 in 10.0 mi North 11.5 mph - N/A   Overcast
2:31 AM 64.4 °F 60.8 °F 88% 30.12 in 10.0 mi North 8.1 mph - N/A   Overcast
2:54 AM 64.9 °F 60.1 °F 84% 30.11 in 10.0 mi North 9.2 mph - N/A   Overcast
3:54 AM 64.0 °F 60.1 °F 87% 30.09 in 10.0 mi North 11.5 mph - N/A   Overcast
4:54 AM 64.0 °F 60.1 °F 87% 30.09 in 10.0 mi North 9.2 mph - N/A   Overcast
5:54 AM 64.0 °F 60.1 °F 87% 30.10 in 10.0 mi North 9.2 mph - N/A   Overcast
6:01 AM 64.4 °F 60.8 °F 88% 30.10 in 10.0 mi North 11.5 mph - N/A   Overcast
6:54 AM 63.0 °F 60.1 °F 90% 30.09 in 7.0 mi North 8.1 mph - N/A   Overcast
7:54 AM 62.1 °F 60.1 °F 93% 30.10 in 3.0 mi North 9.2 mph - N/A   Overcast
8:05 AM 62.6 °F 60.8 °F 94% 30.10 in 2.0 mi North 9.2 mph - N/A   Overcast
8:38 AM 62.6 °F 60.8 °F 94% 30.11 in 3.0 mi North 9.2 mph - N/A   Overcast
8:54 AM 63.0 °F 60.1 °F 90% 30.12 in 5.0 mi North 9.2 mph - N/A   Overcast
9:54 AM 63.0 °F 60.1 °F 90% 30.12 in 6.0 mi North 10.4 mph - N/A   Overcast
10:54 AM 64.9 °F 61.0 °F 87% 30.11 in 10.0 mi North 12.7 mph - N/A   Overcast
11:54 AM 68.0 °F 62.1 °F 81% 30.09 in 10.0 mi North 8.1 mph - N/A   Overcast
12:08 PM 69.8 °F 62.6 °F 78% 30.08 in 10.0 mi North 9.2 mph - N/A   Overcast
12:54 PM 69.1 °F 63.0 °F 81% 30.07 in 10.0 mi North 9.2 mph - N/A   Overcast
1:54 PM 69.1 °F 64.0 °F 84% 30.04 in 8.0 mi North 10.4 mph - N/A   Overcast
2:54 PM 70.0 °F 64.0 °F 81% 30.03 in 9.0 mi NNE 9.2 mph - N/A   Overcast
3:54 PM 69.1 °F 64.9 °F 87% 30.03 in 2.0 mi North 11.5 mph - 0.00 in Rain Light Rain
4:01 PM 69.8 °F 64.4 °F 83% 30.03 in 5.0 mi North 11.5 mph - 0.00 in Rain Light Rain
4:13 PM 69.8 °F 64.4 °F 83% 30.02 in 2.5 mi North 6.9 mph - 0.00 in   Overcast
4:54 PM 70.0 °F 64.9 °F 84% 30.03 in 2.5 mi North 9.2 mph - 0.00 in   Haze
5:01 PM 69.8 °F 64.4 °F 83% 30.03 in 8.0 mi North 8.1 mph - N/A   Overcast
5:36 PM 69.8 °F 64.4 °F 83% 30.02 in 10.0 mi North 8.1 mph - N/A   Overcast
5:44 PM 69.8 °F 64.4 °F 83% 30.02 in 10.0 mi North 10.4 mph - N/A   Overcast
5:54 PM 70.0 °F 64.9 °F 84% 30.02 in 10.0 mi North 8.1 mph - N/A   Overcast
6:01 PM 69.8 °F 64.4 °F 83% 30.02 in 10.0 mi North 10.4 mph 16.1 mph N/A   Overcast
6:54 PM 69.1 °F 64.9 °F 87% 30.04 in 10.0 mi North 9.2 mph - N/A   Overcast
7:54 PM 68.0 °F 64.9 °F 90% 30.04 in 10.0 mi North 9.2 mph - N/A   Mostly Cloudy
8:27 PM 68.0 °F 64.4 °F 88% 30.04 in 10.0 mi North 10.4 mph - N/A   Scattered Clouds
8:54 PM 68.0 °F 64.0 °F 87% 30.04 in 10.0 mi North 6.9 mph - N/A   Scattered Clouds
9:09 PM 68.0 °F 64.4 °F 88% 30.05 in 10.0 mi North 6.9 mph - N/A   Mostly Cloudy
9:51 PM 66.2 °F 64.4 °F 94% 30.05 in 10.0 mi North 6.9 mph - N/A   Overcast
9:54 PM 66.9 °F 64.0 °F 90% 30.05 in 10.0 mi North 8.1 mph - N/A   Mostly Cloudy
10:05 PM 66.2 °F 64.4 °F 94% 30.05 in 9.0 mi North 8.1 mph - N/A   Mostly Cloudy
10:15 PM 68.0 °F 64.4 °F 88% 30.04 in 10.0 mi North 8.1 mph - N/A   Mostly Cloudy
10:54 PM 68.0 °F 64.9 °F 90% 30.03 in 10.0 mi North 6.9 mph - N/A   Overcast
11:37 PM 68.0 °F 64.4 °F 88% 30.03 in 10.0 mi NNE 8.1 mph - N/A   Overcast
11:54 PM 68.0 °F 64.9 °F 90% 30.02 in 10.0 mi NNE 9.2 mph - N/A   Overcast